EDT,Max TemperatureF,Mean TemperatureF,Min TemperatureF,Max Dew PointF,MeanDew PointF,Min DewpointF,Max Humidity, Mean Humidity, Min Humidity, Max Sea Level PressureIn, Mean Sea Level PressureIn, Min Sea Level PressureIn, Max VisibilityMiles, Mean VisibilityMiles, Min VisibilityMiles, Max Wind SpeedMPH, Mean Wind SpeedMPH, Max Gust SpeedMPH,PrecipitationIn, CloudCover, Events, WindDirDegrees
2013-5-1,82,72,62,58,55,52,78,56,35,30.15,30.09,29.98,10,10,10,12,6,21,0.00,0,,166
2013-5-2,66,54,42,56,46,38,90,78,65,30.19,30.16,30.12,10,10,10,10,5,,0.00,1,,290
2013-5-3,64,52,42,54,46,39,96,81,60,30.14,30.04,29.97,10,10,7,13,3,,0.00,4,,339
2013-5-4,73,64,55,49,44,38,62,48,28,30.04,30.00,29.97,10,10,10,14,8,23,0.00,0,,101
2013-5-5,75,62,51,47,43,39,83,54,32,30.03,30.01,29.96,10,10,9,15,6,21,0.00,0,,87
2013-5-6,71,60,50,48,41,38,83,54,33,30.04,30.00,29.97,10,10,9,7,4,,0.00,2,,44
2013-5-7,72,58,44,48,43,40,93,64,39,30.04,30.01,29.99,10,8,2,8,1,,0.00,2,,330
2013-5-8,72,60,48,53,45,36,93,65,28,30.04,30.01,29.98,10,8,1,9,1,,0.00,1,,308
2013-5-9,81,62,44,59,50,42,94,73,30,29.98,29.94,29.88,10,9,6,12,1,16,0.03,4,Rain,161
2013-5-10,61,52,42,61,51,42,100,94,87,29.95,29.83,29.75,10,3,0,18,6,24,0.18,8,Fog-Rain,210
2013-5-11,55,46,37,48,41,33,100,85,68,30.00,29.91,29.82,10,8,2,18,7,34,0.01,7,Rain,268
2013-5-12,46,40,34,35,30,26,86,64,48,30.14,30.08,29.99,10,10,10,15,10,24,0.00,4,,305
2013-5-13,57,44,30,33,28,20,92,57,25,30.22,30.15,30.08,10,10,9,9,2,,0.00,2,,108
2013-5-14,79,62,50,55,43,26,63,45,37,30.06,29.83,29.68,10,10,10,14,9,26,0.00,2,,172
2013-5-15,81,68,54,58,49,44,80,49,35,29.84,29.75,29.59,10,10,10,25,13,38,0.00,0,,277
2013-5-16,73,60,48,52,45,40,93,59,36,29.98,29.92,29.83,10,10,9,8,2,,0.00,0,,313
2013-5-17,77,65,53,51,46,42,71,49,37,30.06,30.02,29.98,10,10,10,13,6,,0.00,3,,93
2013-5-18,79,66,55,58,50,41,90,57,40,30.09,30.04,29.98,10,10,6,13,8,,0.00,1,,121
2013-5-19,89,74,59,62,58,50,90,58,39,29.98,29.91,29.80,10,10,6,13,4,18,0.00,0,,148
2013-5-20,90,80,71,68,63,55,81,58,33,29.84,29.79,29.73,10,10,6,18,9,28,0.00,1,Rain,183
2013-5-21,81,72,64,65,63,61,96,80,58,29.83,29.74,29.69,10,9,2,22,10,43,0.62,4,Rain-Thunderstorm,203
2013-5-22,73,66,59,66,62,57,97,87,73,29.72,29.68,29.65,10,8,2,16,6,23,0.31,7,Rain,218
2013-5-23,53,50,42,57,46,37,100,93,76,30.24,29.91,29.74,10,5,0,12,7,24,0.16,7,Fog-Rain,302
2013-5-24,50,42,37,40,36,33,89,72,56,30.44,30.36,30.25,10,10,10,10,4,18,0.00,0,,342
2013-5-25,60,48,36,47,41,35,97,77,57,30.41,30.36,30.30,10,10,10,7,2,,0.00,0,,298
2013-5-26,71,54,39,43,41,37,96,60,35,30.32,30.27,30.18,10,10,10,10,4,,0.00,0,,107
2013-5-27,61,57,53,54,50,36,94,80,39,30.18,30.04,29.91,10,9,2,18,11,31,0.07,8,Rain,109
2013-5-28,78,68,57,70,63,54,100,84,66,29.90,29.83,29.77,10,8,2,30,9,39,0.93,7,Rain-Thunderstorm,187
2013-5-29,82,71,60,69,63,59,100,79,60,29.99,29.90,29.82,10,9,2,17,7,24,0.05,3,Rain-Thunderstorm,206
2013-5-30,86,78,70,70,65,60,88,66,51,29.96,29.92,29.87,10,10,10,17,9,26,0.04,3,Thunderstorm,175
2013-5-31,77,70,64,66,64,61,94,76,67,29.93,29.86,29.78,10,10,2,17,10,32,0.21,4,Rain-Thunderstorm,177